This demonstration page uses our WeatherBlox Daily Observations layout. Learn more.

Hourly Observations for July 31, 2016

Temp ( °F °C ) Dew Point ( °F °C ) Humidity (%) Winds ( mph kmh ) Pressure ( in mb ) Visibility ( mi km ) Precip ( " mm )
12:15 am 00:15 Clear 72 22.2 68 20 87 87 SE 10 17 29.85 1011 10 16.0934 N/A
12:35 am 00:35 Clear 72 22 68 20 88 88 SE 9 15 29.83 1010 10 16.0934 N/A
12:55 am 00:55 Clear 71 21.7 68 20 90 90 SE 9 15 29.83 1010 10 16.0934 N/A
1:15 am 01:15 Clear 71 21.6 68 20 91 91 SE 8 13 29.83 1010 10 16.0934 N/A
1:35 am 01:35 Clear 71 21.5 68 20 91 91 SE 9 15 29.83 1010 10 16.0934 N/A
1:55 am 01:55 Partly Cloudy 71 21.6 68 20 91 91 ESE 9 15 29.83 1010 10 16.0934 N/A
2:15 am 02:15 Partly Cloudy 71 21.5 68 19.8 90 90 SE 9 15 29.8 1009 10 16.0934 N/A
2:35 am 02:35 Clear 70 21.2 67 19.7 91 91 ESE 7 11 29.8 1009 10 16.0934 N/A
2:55 am 02:55 Partly Cloudy 70 21.3 68 19.8 91 91 ESE 8 13 29.8 1009 10 16.0934 N/A
3:15 am 03:15 Partly Cloudy 70 21.1 67 19.7 92 92 SE 8 13 29.8 1009 10 16.0934 N/A
3:35 am 03:35 Mostly Cloudy 70 21.1 68 19.8 92 92 ESE 7 11 29.8 1009 10 16.0934 N/A
3:55 am 03:55 Cloudy with Thunderstorms 70 21.2 68 19.9 92 92 SE 10 17 29.8 1009 10 16.0934 N/A
4:15 am 04:15 Cloudy with Thunderstorms 70 21.1 68 19.9 93 93 SSE 12 19 29.8 1009 7 11.26538 N/A
4:35 am 04:35 Mostly Cloudy 70 21 68 19.8 93 93 SSE 8 13 29.8 1009 7 11.26538 N/A
4:55 am 04:55 Mostly Cloudy with Thunderstorms 70 21 67 19.6 92 92 E 7 11 29.8 1009 10 16.0934 N/A
5:15 am 05:15 Mostly Cloudy 70 21 67 19.7 92 92 SE 6 9 29.77 1008 7 11.26538 N/A
5:35 am 05:35 Partly Cloudy 69 20.7 67 19.3 92 92 ENE 3 6 29.8 1009 10 16.0934 N/A
5:55 am 05:55 Partly Cloudy 69 20.6 67 19.5 93 93 N 15 24 29.83 1010 7 11.26538 N/A
6:15 am 06:15 Mostly Cloudy with Nearby Thunderstorms 69 20.3 63 17.4 84 84 NNE 13 20 29.83 1010 10 16.0934 N/A
6:35 am 06:35 Cloudy 68 20.2 64 18 87 87 NE 12 19 29.83 1010 10 16.0934 N/A
6:55 am 06:55 Cloudy 69 20.5 65 18.5 88 88 ENE 9 15 29.83 1010 10 16.0934 N/A
7:15 am 07:15 Partly Cloudy 68 20.1 65 18.2 89 89 ESE 8 13 29.83 1010 10 16.0934 N/A
7:35 am 07:35 Sunny 68 19.8 65 18.2 91 91 SE 12 19 29.83 1010 10 16.0934 N/A
7:55 am 07:55 Partly Cloudy 68 20.1 66 18.7 92 92 SE 9 15 29.83 1010 10 16.0934 N/A
8:15 am 08:15 Cloudy 69 20.7 67 19.3 92 92 ESE 15 24 29.83 1010 10 16.0934 N/A
8:35 am 08:35 Cloudy 70 21.1 67 19.5 91 91 ESE 12 19 29.83 1010 10 16.0934 N/A
8:55 am 08:55 Partly Cloudy 72 22 67 19.5 86 86 ESE 14 22 29.83 1010 10 16.0934 N/A
9:15 am 09:15 Sunny 73 22.5 67 19.6 84 84 ESE 14 22 29.8 1009 10 16.0934 N/A
9:35 am 09:35 Sunny 74 23.2 66 18.9 77 77 SE 16 26 29.77 1008 10 16.0934 N/A
9:55 am 09:55 Sunny 74 23.6 66 18.8 75 75 SE 18 30 29.77 1008 10 16.0934 N/A
10:15 am 10:15 Sunny 75 24.1 66 18.9 73 73 SE 15 24 29.77 1008 10 16.0934 N/A
10:35 am 10:35 Sunny 76 24.6 67 19.2 72 72 SSE 15 24 29.77 1008 10 16.0934 N/A
10:55 am 10:55 Sunny 77 25.1 66 19.1 69 69 SSE 16 26 29.77 1008 10 16.0934 N/A
11:15 am 11:15 Sunny 78 25.5 67 19.5 70 70 SSE 17 28 29.77 1008 10 16.0934 N/A
11:35 am 11:35 Sunny 78 25.7 67 19.6 69 69 SSE 16 26 29.74 1007 10 16.0934 N/A
11:55 am 11:55 Sunny 79 26.1 68 19.8 68 68 SSE 18 30 29.74 1007 10 16.0934 N/A
12:15 pm 12:15 Sunny 80 26.5 68 20.1 68 68 SSE 17 28 29.74 1007 10 16.0934 N/A
12:35 pm 12:35 Sunny 81 27 69 20.6 68 68 SSE 15 24 29.74 1007 10 16.0934 N/A
12:55 pm 12:55 Partly Cloudy 81 27 69 20.8 69 69 ESE 12 19 29.74 1007 10 16.0934 N/A
1:15 pm 13:15 Partly Cloudy 82 27.6 70 21 67 67 SSE 15 24 29.74 1007 10 16.0934 N/A
1:35 pm 13:35 Sunny 83 28.3 71 21.5 67 67 SSE 16 26 29.74 1007 10 16.0934 N/A
1:55 pm 13:55 Partly Cloudy 83 28.5 71 21.4 65 65 SSE 15 24 29.74 1007 10 16.0934 N/A
2:15 pm 14:15 Partly Cloudy 84 28.7 70 21.3 64 64 SSE 16 26 29.74 1007 10 16.0934 N/A
2:35 pm 14:35 Partly Cloudy 84 29 70 21.3 63 63 SE 17 28 29.74 1007 10 16.0934 N/A
2:55 pm 14:55 Sunny 85 29.2 71 21.5 63 63 SSE 17 28 29.68 1005 10 16.0934 N/A
3:15 pm 15:15 Partly Cloudy 85 29.2 71 21.7 64 64 SE 14 22 29.68 1005 10 16.0934 N/A
3:35 pm 15:35 Partly Cloudy 85 29.2 70 21 61 61 S 15 24 29.68 1005 10 16.0934 N/A
3:55 pm 15:55 Sunny 86 29.8 70 21.3 60 60 SSE 15 24 29.68 1005 10 16.0934 N/A
4:15 pm 16:15 Sunny 85 29.6 71 21.4 61 61 SSE 13 20 29.68 1005 10 16.0934 N/A
4:35 pm 16:35 Sunny 85 29.5 70 20.9 60 60 SSE 12 19 29.68 1005 10 16.0934 N/A
4:55 pm 16:55 Sunny 86 30 70 20.9 58 58 SE 16 26 29.65 1004 10 16.0934 N/A
5:15 pm 17:15 Sunny 86 30 70 21.3 60 60 SE 12 19 29.65 1004 10 16.0934 N/A
5:35 pm 17:35 Sunny 86 30 71 21.5 60 60 SE 13 20 29.65 1004 10 16.0934 N/A
5:55 pm 17:55 Sunny 86 30 71 21.5 60 60 SE 14 22 29.65 1004 10 16.0934 N/A
6:15 pm 18:15 Sunny 86 30 70 21.2 59 59 SE 14 22 29.65 1004 10 16.0934 N/A
6:35 pm 18:35 Sunny 86 30 71 21.4 60 60 SE 14 22 29.65 1004 10 16.0934 N/A
6:55 pm 18:55 Sunny 85 29.7 71 21.9 63 63 ESE 14 22 29.65 1004 10 16.0934 N/A
7:15 pm 19:15 Sunny 85 29.3 71 21.8 64 64 ESE 13 20 29.65 1004 10 16.0934 N/A
7:35 pm 19:35 Sunny 84 29 72 22.1 66 66 ESE 14 22 29.65 1004 10 16.0934 N/A
7:55 pm 19:55 Sunny 83 28.6 72 22.1 68 68 ESE 13 20 29.68 1005 10 16.0934 N/A
8:15 pm 20:15 Sunny 83 28.1 72 22.3 71 71 ESE 10 17 29.68 1005 10 16.0934 N/A
8:35 pm 20:35 Sunny 82 27.7 72 22.1 72 72 ESE 15 24 29.68 1005 10 16.0934 N/A
8:55 pm 20:55 Sunny 81 27.1 72 22.3 75 75 ESE 12 19 29.68 1005 10 16.0934 N/A
9:15 pm 21:15 Clear 80 26.7 73 22.5 78 78 ESE 12 19 29.68 1005 10 16.0934 N/A
9:35 pm 21:35 Clear 80 26.4 73 22.5 79 79 ESE 9 15 29.68 1005 10 16.0934 N/A
9:55 pm 21:55 Clear 80 26.5 73 22.5 79 79 SE 14 22 29.68 1005 10 16.0934 N/A
10:15 pm 22:15 Clear 79 26.1 73 22.5 81 81 SE 13 20 29.68 1005 10 16.0934 N/A
10:35 pm 22:35 Clear 78 25.8 73 22.5 82 82 SE 12 19 29.71 1006 10 16.0934 N/A
10:55 pm 22:55 Clear 78 25.5 73 22.5 84 84 SE 13 20 29.71 1006 10 16.0934 N/A
11:15 pm 23:15 Clear 77 25.2 73 22.5 85 85 ESE 12 19 29.74 1007 10 16.0934 N/A
11:35 pm 23:35 Clear 77 25.1 73 22.7 87 87 SE 10 17 29.74 1007 10 16.0934 N/A
11:55 pm 23:55 Clear 77 24.9 73 22.7 88 88 SE 9 15 29.74 1007 10 16.0934 N/A

Powered by AerisWeather